GEFSSE_con_cape1000_270.txt.gz
Probability
10 23 48 45 52 45 42 45 52 55 55 48 48 52 52 52 48 45 39 45 45 58 58 52 55 45 48 61 61 61 61 61 61 55 52 68 65 61 68 61 55 52 58
10 23 45 48 48 48 52 52 52 55 55 52 48 48 55 42 39 32 45 45 48 48 52 45 45 45 48 61 61 52 55 48 48 48 45 42 58 61 65 65 61 55 52
10 26 35 45 48 48 48 52 52 48 48 48 45 42 42 35 35 39 42 42 52 52 45 42 35 35 42 45 52 52 48 48 48 39 39 23 39 58 61 58 58 55 55
6 13 26 45 48 48 55 55 55 48 52 45 45 42 35 35 32 32 45 42 39 39 35 29 29 32 35 35 39 42 45 35 35 29 10 16 23 55 65 61 55 52 52
6 16 39 39 39 52 55 48 52 45 48 42 39 35 29 29 29 29 29 32 42 42 32 32 29 26 39 35 39 42 35 39 26 16 6 6 16 45 55 58 48 45 39
10 19 32 42 35 39 39 45 48 42 45 45 35 32 29 26 29 29 26 32 39 35 32 26 26 29 23 32 32 29 23 23 3 3 3 3 19 35 42 45 42 45 42
10 13 32 39 35 39 42 42 45 39 39 42 29 29 26 26 23 26 19 29 35 35 26 29 32 29 26 35 32 39 26 19 3 3 6 6 26 39 35 45 42 45 52
10 13 32 35 42 35 39 35 42 39 35 35 26 26 26 26 23 29 29 35 32 23 26 26 29 26 29 29 32 32 19 19 6 6 6 10 29 42 39 39 45 45 39
3 6 13 19 29 39 35 35 35 35 35 29 23 19 19 19 19 26 29 26 19 19 19 26 23 23 26 32 23 26 23 19 3 6 10 10 35 35 35 39 39 39 39
3 6 10 6 13 13 26 35 42 35 26 26 19 19 19 13 13 19 19 16 16 19 23 23 16 29 23 29 32 32 26 10 0 3 13 23 32 29 29 32 39 35 32
3 3 6 3 6 6 6 19 32 29 32 26 16 13 10 6 3 6 13 13 13 13 19 16 19 26 23 16 26 26 6 0 0 6 13 29 26 26 23 26 29 29 26
3 3 3 3 6 6 6 6 6 6 6 3 6 10 3 0 3 3 13 13 16 13 13 16 10 10 6 0 0 0 3 0 3 3 10 26 23 19 16 19 26 26 26
0 3 3 3 3 6 6 6 6 3 3 3 3 3 0 0 0 3 3 3 3 3 3 3 3 3 3 0 0 0 0 0 3 3 6 23 23 23 16 23 23 23 19
0 0 3 3 3 3 6 6 6 3 0 0 0 0 0 0 0 0 0 0 3 3 0 0 0 0 0 0 0 0 0 0 0 0 3 26 23 19 13 19 19 19 19
0 0 0 0 3 0 0 0 0 0 0 0 0 0 0 0 0 0 0 0 0 0 0 0 0 0 0 0 0 0 0 0 0 0 0 16 19 16 13 13 13 13 19
0 0 0 0 0 0 0 0 0 0 0 0 0 0 0 0 0 0 0 0 0 0 0 0 0 0 0 0 0 0 0 0 0 0 0 3 13 19 16 16 16 6 10
0 0 0 0 0 0 0 0 0 0 0 0 0 0 0 0 0 0 0 0 0 0 0 0 0 0 0 0 0 0 0 0 0 0 0 0 3 10 19 16 13 6 3
3 0 0 0 0 0 0 0 0 0 0 0 0 0 0 0 0 0 0 0 0 0 0 0 0 0 0 0 0 0 0 0 0 0 0 0 0 0 0 10 6 6 3
3 0 0 0 0 0 0 0 0 0 0 0 0 0 0 0 0 0 0 0 0 0 0 0 0 0 0 0 0 0 0 0 0 0 0 0 0 0 0 0 6 6 6
3 0 0 0 0 0 0 0 0 0 0 0 0 0 0 0 0 0 0 0 0 0 0 0 0 0 0 0 0 0 0 0 0 0 0 0 0 0 0 0 0 0 10
3 0 0 0 0 0 0 0 0 0 0 0 0 0 0 0 0 0 0 0 0 0 0 0 0 0 0 0 0 0 0 0 0 0 0 0 0 0 0 0 0 0 0
3 0 0 0 0 0 0 0 0 0 0 0 0 0 0 0 0 0 0 0 0 0 0 0 0 0 0 0 0 0 0 0 0 0 0 0 0 0 0 0 0 0 0
3 0 0 0 0 0 0 0 0 0 0 0 0 0 0 0 0 0 0 0 0 0 0 0 0 0 0 0 0 0 0 0 0 0 0 0 0 0 0 0 0 0 0
3 3 0 0 0 0 0 0 0 0 0 0 0 0 0 0 0 0 0 0 0 0 0 0 0 0 0 0 0 0 0 0 0 0 0 0 0 0 0 0 0 0 0
3 3 0 0 0 0 0 0 0 0 0 0 0 0 0 0 0 0 0 0 0 0 0 0 0 0 0 0 0 0 0 0 0 0 0 0 0 0 0 0 0 0 0
0 3 0 0 0 0 0 0 0 0 0 0 0 0 0 0 0 0 0 0 0 0 0 0 0 0 0 0 0 0 0 0 0 0 0 0 0 0 0 0 0 0 0

GEFSSE_con_cape1000_276.txt.gz
Probability
0 10 42 42 39 35 39 48 52 52 48 52 48 42 45 42 39 39 48 48 45 42 39 45 48 52 55 55 55 52 58 55 48 48 48 48 68 65 61 52 52 48 61
0 10 39 39 39 39 35 45 52 45 45 48 45 42 39 45 45 45 42 42 42 35 39 48 48 48 45 48 52 52 42 45 42 42 45 42 52 61 61 58 55 48 58
10 13 26 39 39 42 39 42 48 45 35 32 42 42 39 42 45 45 39 45 39 35 42 39 35 42 45 48 39 42 35 39 39 42 35 23 35 52 58 58 48 55 52
10 19 23 39 39 42 39 39 32 39 39 39 39 39 32 26 35 42 42 45 39 35 35 35 35 39 39 42 35 35 32 35 39 29 3 13 19 39 52 52 48 55 48
10 16 29 35 32 42 42 42 42 42 42 39 35 32 32 26 26 39 45 35 32 32 32 39 39 39 48 48 42 35 29 26 23 3 3 3 10 35 45 42 45 48 52
3 10 26 32 32 45 39 39 42 42 35 35 32 29 26 23 26 32 32 29 29 23 29 32 32 32 39 42 42 26 23 19 6 3 3 6 16 29 45 45 45 42 45
3 16 23 29 32 35 35 39 39 35 32 32 26 23 23 23 29 29 35 32 26 32 23 29 32 35 26 29 26 23 19 16 3 3 3 6 19 32 42 39 39 39 42
6 16 19 35 32 32 32 39 35 32 32 26 26 26 19 23 29 29 26 26 26 23 26 32 32 29 32 32 29 26 23 10 3 3 3 10 29 39 35 29 39 32 42
10 6 6 10 13 26 29 32 32 32 29 23 19 19 16 19 19 23 23 19 19 23 32 29 35 32 35 35 32 26 16 19 0 3 6 13 29 29 35 39 39 39 42
3 3 6 10 10 10 16 23 26 23 16 16 16 16 13 13 19 23 16 23 13 16 16 16 26 29 32 32 29 32 23 13 0 3 6 13 26 32 35 35 39 39 42
3 3 3 3 3 6 6 10 6 13 10 10 6 10 6 3 6 10 16 16 13 16 19 19 26 26 23 23 16 13 6 0 0 0 6 23 29 32 29 29 39 39 35
3 3 3 3 3 3 6 6 6 6 6 6 3 3 3 3 3 3 10 13 16 16 19 19 19 10 0 0 6 0 0 0 0 0 6 26 23 23 23 29 35 32 16
3 3 3 3 3 3 6 6 3 3 3 3 0 0 0 0 0 3 3 3 3 3 3 3 3 3 0 0 0 0 0 0 0 0 13 26 19 16 23 26 26 23 23
3 3 3 3 3 3 3 6 3 3 0 0 0 0 0 0 0 0 0 0 3 3 3 3 3 0 0 0 0 0 0 0 0 0 3 19 19 23 16 19 19 16 16
3 3 3 3 3 3 3 0 0 0 0 0 0 0 0 0 0 0 0 0 0 0 0 0 0 0 0 0 0 0 0 0 0 0 0 13 13 16 16 13 16 13 16
0 3 3 3 3 3 3 0 0 0 0 0 0 0 0 0 0 0 0 0 0 0 0 0 0 0 0 0 0 0 0 0 0 0 0 0 6 13 16 10 10 10 10
0 0 3 3 3 3 0 0 0 0 0 0 0 0 0 0 0 0 0 0 0 0 0 0 0 0 0 0 0 0 0 0 0 0 0 0 0 0 6 10 3 10 6
0 0 0 3 3 3 0 0 0 0 0 0 0 0 0 0 0 0 0 0 0 0 0 0 0 0 0 0 0 0 0 0 0 0 0 0 0 0 0 3 3 6 6
0 0 0 0 0 3 0 0 0 0 0 0 0 0 0 0 0 0 0 0 0 0 0 0 0 0 0 0 0 0 0 0 0 0 0 0 0 0 0 0 0 0 0
0 0 0 0 0 0 0 0 0 0 0 0 0 0 0 0 0 0 0 0 0 0 0 0 0 0 0 0 0 0 0 0 0 0 0 0 0 0 0 0 0 0 0
3 0 3 0 0 0 0 0 0 0 0 0 0 0 0 0 0 0 0 0 0 0 0 0 0 0 0 0 0 0 0 0 0 0 0 0 0 0 0 0 0 0 0
3 0 0 0 0 0 0 0 0 0 0 0 0 0 0 0 0 0 0 0 0 0 0 0 0 0 0 0 0 0 0 0 0 0 0 0 0 0 0 0 0 0 0
3 3 3 0 0 0 0 0 0 0 0 0 0 0 0 0 0 0 0 0 0 0 0 0 0 0 0 0 0 0 0 0 0 0 0 0 0 0 0 0 0 0 0
3 3 3 3 0 0 0 0 0 0 0 0 0 0 0 0 0 0 0 0 0 0 0 0 0 0 0 0 0 0 0 0 0 0 0 0 0 0 0 0 0 0 0
3 3 0 3 0 0 0 0 0 0 0 0 0 0 0 0 0 0 0 0 0 0 0 0 0 0 0 0 0 0 0 0 0 0 0 0 0 0 0 0 0 0 0
3 3 6 3 0 0 0 0 0 0 0 0 0 0 0 0 0 0 0 0 0 0 0 0 0 0 0 0 0 0 0 0 0 0 0 0 0 0 0 0 0 0 0

GEFSSE_con_cape1000_282.txt.gz
Probability
6 13 29 32 29 35 39 39 39 42 35 35 42 42 42 39 42 42 45 35 39 39 45 45 42 42 48 48 55 52 55 58 52 48 45 42 45 68 58 42 48 52 55
6 16 29 35 32 29 39 39 32 39 39 35 32 42 42 32 35 39 42 35 35 39 42 32 35 35 35 39 42 35 42 42 42 39 45 42 48 48 45 48 48 52 52
10 16 26 32 29 35 35 32 39 35 32 29 39 42 48 45 42 45 35 42 29 32 35 35 32 29 29 32 32 29 29 32 39 32 39 42 42 45 45 42 52 55 52
10 16 16 29 32 32 32 32 32 32 32 35 39 39 35 35 39 35 39 39 42 39 35 29 32 32 29 23 29 23 26 29 26 23 13 19 26 42 48 39 45 48 45
6 13 23 35 35 32 29 32 35 32 29 26 32 26 32 32 29 29 29 35 32 29 29 29 39 32 29 26 26 26 23 23 19 13 29 29 42 39 45 52 48 45 48
6 16 19 35 32 35 39 39 35 32 32 32 35 39 32 29 29 29 23 26 23 26 29 29 35 32 35 32 29 26 23 16 16 16 26 29 35 39 42 39 45 45 48
10 13 16 35 35 35 32 32 35 35 35 32 32 29 23 29 26 29 32 26 23 26 26 29 32 35 29 26 23 19 23 26 16 16 26 35 35 39 42 39 45 39 35
6 10 13 26 26 26 32 35 32 32 26 23 19 29 23 26 23 26 16 19 19 29 26 26 32 32 32 32 26 23 23 13 6 6 23 32 32 32 26 29 32 39 35
6 10 13 16 16 23 26 26 26 32 26 19 19 19 23 26 26 19 16 13 16 19 23 19 16 23 19 19 19 19 16 23 13 19 10 29 29 26 26 26 29 23 32
6 10 6 3 3 6 13 23 19 19 19 19 19 23 16 13 10 16 13 16 19 23 16 19 19 26 23 19 16 23 16 13 6 10 16 19 26 29 23 23 26 23 23
6 10 6 3 3 3 6 6 10 13 13 13 10 13 13 10 6 10 10 16 16 16 19 26 19 19 19 13 13 16 10 6 10 16 16 16 29 32 32 26 29 32 19
6 6 6 10 3 3 3 6 10 6 6 3 6 6 6 10 10 6 6 16 16 16 19 16 19 13 10 13 10 6 10 6 10 13 19 23 23 23 19 23 23 19 19
6 10 6 6 3 3 6 6 13 10 10 3 3 6 6 6 10 16 10 13 10 6 13 10 10 10 6 10 10 6 6 6 6 6 16 26 23 23 19 23 23 16 19
10 10 10 6 3 3 3 6 6 6 3 3 3 6 6 10 3 3 3 10 10 10 13 13 10 10 10 6 3 3 3 6 6 6 13 16 19 13 13 16 13 13 6
10 10 10 10 6 3 3 10 3 6 3 3 6 3 3 6 3 3 3 6 6 6 10 13 10 3 3 6 0 3 0 3 3 6 10 6 10 13 13 19 16 13 10
13 13 13 13 10 3 10 10 6 6 6 3 6 3 0 6 6 3 3 3 6 6 0 0 0 0 6 6 0 0 0 3 0 0 3 6 10 13 13 10 13 13 6
13 13 13 13 10 6 6 6 6 6 6 3 6 3 0 3 3 3 3 3 3 3 0 0 0 3 0 0 3 0 0 0 0 0 0 0 3 0 3 6 6 3 3
10 10 13 10 6 6 6 6 6 6 3 3 6 3 0 0 3 3 3 3 3 3 3 3 0 0 0 3 0 0 0 3 3 0 0 0 0 0 0 0 0 3 0
10 10 13 10 6 6 6 6 6 6 6 6 3 6 3 0 0 3 3 0 0 3 3 0 0 0 0 0 0 0 0 0 0 0 0 0 0 0 0 0 3 3 0
10 6 6 10 6 6 10 6 6 6 6 6 6 3 3 3 0 0 0 0 0 3 3 3 0 3 3 3 0 0 0 0 0 0 0 0 0 0 0 0 0 0 3
6 10 6 13 13 13 13 10 10 3 3 6 3 3 3 3 3 0 0 3 3 3 3 3 3 3 0 0 0 0 0 0 0 0 0 0 0 0 0 0 3 0 3
10 13 13 13 16 16 16 6 6 3 3 3 3 3 3 3 0 0 0 3 3 3 3 3 3 3 0 0 0 0 0 0 0 0 0 0 0 0 0 0 0 3 3
10 16 10 16 16 19 13 6 6 6 6 6 3 3 3 3 3 0 0 3 3 3 3 3 3 0 0 0 0 0 0 0 0 0 0 0 0 0 0 0 0 0 0
13 13 19 13 13 16 10 6 6 6 3 3 3 3 3 3 3 0 0 0 3 3 3 3 3 3 0 0 0 0 0 0 0 0 0 0 0 0 0 0 0 0 0
10 16 13 13 13 10 6 6 13 6 3 6 3 3 3 3 3 3 3 3 3 6 3 0 0 0 0 0 0 0 0 0 0 0 0 0 0 0 0 0 0 0 0
10 10 13 16 10 6 6 10 6 10 10 3 3 3 3 3 3 3 3 3 3 3 3 0 0 0 0 0 0 0 3 0 0 0 0 0 0 0 0 0 3 0 0

GEFSSE_con_cape1000_288.txt.gz
Probability
23 23 45 48 39 32 32 39 32 35 42 39 52 45 42 35 35 32 32 32 35 39 32 48 45 42 42 35 35 39 45 52 42 45 48 52 52 52 58 52 42 45 58
16 26 48 42 42 35 32 39 39 39 35 42 39 35 39 35 39 32 32 26 32 26 32 39 35 42 42 39 32 32 39 39 42 42 48 42 45 45 48 48 48 45 55
19 19 42 39 42 42 39 32 29 29 32 23 26 32 32 35 39 32 29 23 23 26 35 35 32 35 32 29 26 29 23 23 29 23 35 26 35 42 48 48 48 48 45
16 13 19 45 35 39 32 29 26 23 26 23 19 26 29 32 32 29 29 32 29 32 29 32 32 26 26 26 26 23 23 16 26 32 16 23 29 45 48 48 45 48 48
13 26 29 39 35 32 29 26 23 26 29 26 23 23 29 29 26 29 26 23 23 26 29 26 35 32 29 26 26 29 23 23 39 26 19 16 26 45 45 45 52 48 45
16 19 23 45 39 29 26 29 29 26 23 23 26 26 23 26 23 23 23 23 23 26 23 23 29 29 26 29 29 35 26 29 16 10 16 16 26 42 48 45 42 39 45
16 19 23 42 39 32 35 35 32 29 26 26 26 23 23 19 19 23 19 26 19 19 16 16 23 26 29 29 29 32 39 35 6 10 13 10 19 42 45 39 35 32 29
13 13 19 42 42 35 35 35 35 29 23 26 16 16 13 19 16 19 16 16 19 16 16 19 23 19 23 29 29 29 35 19 6 10 10 10 29 35 39 42 32 29 26
13 10 13 19 26 35 42 42 39 29 19 10 13 16 19 16 19 23 16 19 19 16 16 16 19 19 23 23 26 23 26 32 3 3 3 10 42 35 32 29 23 26 26
10 10 6 13 10 13 19 32 26 23 13 10 13 16 23 19 16 13 10 16 16 19 19 16 13 13 10 16 19 19 19 10 0 3 3 13 32 26 29 35 23 19 23
13 10 6 6 6 3 10 10 13 13 10 6 10 10 10 6 3 6 10 16 16 13 13 10 13 10 10 10 16 10 3 3 0 3 3 23 29 26 26 26 26 23 19
13 10 6 6 6 3 3 3 3 3 6 3 3 6 10 3 3 3 13 13 13 13 16 16 19 16 10 3 6 6 3 6 0 0 3 26 23 23 19 19 23 19 16
10 10 10 10 6 3 3 3 6 3 3 3 3 6 10 6 3 3 3 3 3 13 10 13 10 3 6 3 3 3 6 3 3 3 0 26 19 19 19 16 16 19 16
10 10 10 10 10 3 3 3 3 3 3 3 3 3 6 3 3 3 3 3 3 3 3 3 3 3 0 3 0 3 3 3 3 3 3 23 23 19 19 16 19 19 23
13 13 10 10 6 3 6 6 6 3 3 3 3 3 3 6 3 3 3 6 6 6 6 6 3 0 0 0 0 0 0 3 0 0 0 10 23 19 16 16 19 16 13
16 16 13 13 10 6 3 3 3 3 3 3 6 3 3 3 3 3 3 3 6 6 6 3 3 0 0 0 0 0 0 0 0 0 0 3 19 16 19 16 13 6 13
16 13 13 13 13 6 6 6 3 6 3 3 3 3 0 0 0 0 3 0 3 3 3 3 0 0 0 0 0 0 0 0 0 3 0 3 3 3 13 6 6 6 16
13 13 13 13 10 6 6 6 6 6 3 6 6 6 0 0 0 0 0 3 3 0 3 3 0 0 0 0 0 0 0 0 0 0 0 0 3 3 3 10 13 10 13
10 16 13 13 6 6 6 10 10 6 10 6 6 6 0 0 0 0 0 0 0 0 0 0 0 0 0 0 0 0 0 0 0 0 0 0 0 0 0 0 6 6 6
10 10 13 13 10 6 10 10 10 10 6 6 3 6 3 0 0 0 0 0 0 0 0 0 0 0 0 0 0 0 0 0 0 0 0 0 0 0 0 0 0 0 6
10 13 10 10 10 10 10 10 10 10 10 6 3 6 6 3 0 0 0 0 0 0 0 0 3 0 0 0 0 0 0 0 0 0 0 0 0 0 0 0 0 0 0
13 10 10 6 10 10 13 10 6 6 10 6 6 3 3 0 0 0 3 3 3 3 3 3 0 0 0 0 0 0 0 0 0 0 0 0 0 0 0 0 0 0 0
16 16 10 13 10 13 13 6 10 6 6 3 6 3 3 3 3 0 0 3 3 3 3 3 3 0 0 0 0 0 0 0 0 0 0 0 0 0 0 0 0 0 0
16 13 16 13 13 13 16 13 10 10 10 6 6 3 6 3 3 0 0 0 3 3 3 3 3 0 0 0 0 0 0 0 0 0 0 0 0 0 0 0 0 0 0
16 16 16 16 16 13 16 16 13 13 10 10 3 3 3 3 3 3 0 0 3 3 3 3 0 0 0 0 0 0 0 0 0 0 0 0 0 0 0 0 0 0 0
10 13 13 13 13 13 6 19 13 16 10 10 6 3 3 3 3 3 3 0 3 3 3 3 3 3 3 0 0 0 0 0 0 0 0 0 0 0 0 0 0 0 0

GEFSSE_con_cape1000_294.txt.gz
Probability
10 16 55 48 45 42 39 45 45 45 45 48 52 55 52 52 39 29 35 35 39 39 39 39 45 45 42 45 42 48 58 58 58 58 55 48 48 48 45 39 39 45 55
10 29 58 52 45 35 42 42 55 48 48 39 45 39 42 35 39 32 29 29 26 35 32 35 32 42 35 32 42 48 52 55 55 52 45 39 35 42 39 45 39 39 42
16 29 48 52 42 35 42 45 52 42 39 42 39 39 39 29 26 23 23 32 26 32 32 29 29 39 35 32 42 42 39 42 35 42 35 10 32 48 45 45 45 45 42
10 23 35 42 48 39 42 45 45 39 35 42 32 32 39 32 32 29 32 32 32 29 26 26 32 29 29 35 39 42 42 32 32 26 6 10 16 45 48 45 48 42 39
13 16 45 45 39 39 35 35 32 32 39 35 29 35 29 32 32 32 32 29 26 26 26 32 32 26 26 29 39 45 32 29 16 13 3 3 6 39 42 45 39 35 32
10 13 39 48 42 35 32 35 32 29 32 32 35 26 26 26 26 23 23 19 13 19 23 29 29 32 32 29 32 35 23 19 6 3 3 3 10 35 35 39 32 29 29
13 26 35 45 42 35 39 35 32 29 29 32 29 23 23 23 26 23 13 10 13 16 13 23 23 26 32 32 35 35 26 23 0 0 3 3 13 39 35 32 32 32 29
6 26 39 48 42 42 35 32 32 29 32 29 29 19 26 23 23 19 16 10 10 13 16 16 23 19 23 32 29 26 23 13 0 0 3 10 19 32 29 29 29 23 19
6 19 32 29 32 48 39 39 35 32 26 23 13 13 16 19 23 16 23 13 13 10 13 19 19 23 23 19 26 26 23 13 0 0 3 6 26 32 32 29 32 26 23
3 6 19 10 23 19 26 42 32 26 29 19 19 13 13 16 13 13 13 13 16 13 10 16 16 23 26 19 23 26 16 3 0 0 3 10 32 29 26 26 26 26 26
3 6 10 6 6 6 6 23 23 19 16 13 6 10 3 3 3 6 6 10 16 16 13 6 10 13 16 19 16 3 0 0 0 0 6 26 26 26 23 19 23 23 23
6 3 6 6 6 6 6 3 3 6 3 3 3 3 3 3 3 6 6 13 16 16 13 10 6 3 6 0 3 0 0 0 0 0 6 26 19 23 16 13 19 23 19
6 6 6 6 6 3 3 3 3 3 3 3 3 3 3 3 3 3 3 6 6 6 3 3 3 6 0 0 0 0 0 0 0 0 6 23 16 19 23 23 16 23 23
10 10 3 3 3 3 3 3 3 3 3 3 3 3 3 3 3 3 3 3 3 0 0 0 0 0 0 0 0 0 0 0 0 0 0 16 13 23 23 23 19 19 23
6 6 6 3 3 3 3 3 3 3 3 3 3 3 3 3 0 0 0 0 3 0 0 0 0 0 0 0 0 0 0 0 0 0 0 19 16 13 19 23 19 19 19
6 6 6 3 3 3 3 3 3 3 3 3 3 3 3 0 0 0 0 0 0 0 0 0 0 0 0 0 0 0 0 0 0 0 0 3 16 19 23 16 23 19 19
6 6 6 3 3 3 3 3 3 3 3 3 3 3 3 0 0 0 3 0 0 0 0 0 0 0 0 0 0 0 0 0 0 0 0 0 0 13 16 23 16 16 10
6 6 6 6 3 3 3 3 3 3 3 3 0 0 3 0 0 0 0 0 0 0 0 0 0 0 0 0 0 0 0 0 0 0 0 0 0 0 10 16 23 13 6
6 10 10 6 6 6 3 6 3 3 3 3 0 0 0 0 0 0 0 0 0 0 0 0 0 0 0 0 0 0 0 0 0 0 0 0 0 0 0 3 6 10 3
3 10 6 6 6 6 3 3 0 0 3 0 0 0 0 0 0 0 0 0 0 0 0 0 0 0 0 0 0 0 0 0 0 0 0 0 0 0 0 0 0 0 3
6 0 3 6 6 3 0 3 3 0 0 0 0 0 0 0 0 0 0 0 0 0 0 0 0 0 0 0 0 0 0 0 0 0 0 0 0 0 0 0 0 0 0
6 3 3 3 3 0 0 3 3 3 0 0 0 0 0 0 0 0 0 0 0 0 0 0 0 0 0 0 0 0 0 0 0 0 0 0 0 0 0 0 0 0 0
3 3 3 3 0 0 0 0 0 0 0 0 0 0 0 0 0 0 0 0 0 0 0 0 0 0 0 0 0 0 0 0 0 0 0 0 0 0 0 0 0 0 0
6 3 3 3 3 0 0 0 6 0 0 0 3 0 0 0 0 0 0 0 0 0 0 0 0 0 0 0 0 0 0 0 0 0 0 0 0 0 0 0 0 0 0
3 6 3 0 0 0 0 6 3 3 3 0 0 0 0 0 0 0 0 0 0 0 0 0 0 0 0 0 0 0 0 0 0 0 0 0 0 0 0 0 0 0 0
3 3 3 0 0 0 0 3 3 3 3 0 0 0 0 0 0 0 0 0 0 0 0 0 0 0 0 0 0 0 0 0 0 0 0 0 0 0 0 0 0 0 0